Reflectivity
-20 -4 -5 -2 24 22 19 8 14 13 17 17 13 -18 -20 -20 -20 0 18 21 30 15 24 -3 14 -9 -20 -20 -20 -20 -20 -18 -20 -20 -20 -20 -20 -20 -20 -20 -20 -20 -20 -20 -20 -20 -20 -20 -20 -20 -20 -20 -20 -20
-20 -20 -20 -20 -20 -17 16 23 23 24 15 14 -18 -20 -20 -20 2 6 10 23 19 26 3 -17 -20 -20 -20 -20 -20 -20 -20 -20 -20 -19 -15 -20 -20 -20 -20 -20 -20 -20 -20 -20 -20 -20 -20 -20 -20 -20 -20 -20 -20 -20
21 16 -20 -19 19 19 23 34 29 19 9 -20 -20 -20 -20 -20 -14 2 12 26 33 25 20 -19 -20 -20 -20 -20 -20 -20 -20 -20 -20 2 -12 -20 -20 -20 -20 -20 -20 -20 -20 -20 -20 -20 -20 -20 -20 -20 -20 -20 -20 -20
26 -2 16 14 32 39 27 13 -17 -20 -20 -20 -20 -20 -20 5 8 21 21 23 30 33 25 -4 -20 -20 -20 -20 -7 -20 -20 -20 -20 -20 -20 -20 -20 -20 -20 -20 -20 -20 -20 -20 -20 -20 -20 -20 -20 -20 -20 -20 -20 -20
18 19 32 19 10 -8 -7 -7 -20 -20 -20 -20 -20 -20 -20 -5 18 17 22 19 16 28 21 -20 -19 -20 -14 -20 5 -20 -20 -20 -20 -20 -20 -20 -20 -20 -20 -20 -20 -20 -20 -20 -20 -20 -20 -20 -20 -20 -20 -20 -20 -20
-8 15 18 -19 23 -18 -20 -20 -20 -20 -20 -20 -20 -20 -19 16 21 23 24 22 16 30 16 -18 -19 10 -12 -20 14 -3 -13 -20 -20 -20 -20 -20 -20 -20 -20 -20 -20 -20 -20 -20 -20 -20 -20 -20 -20 -20 -20 -20 -20 -20
-20 -20 5 6 7 10 -20 -20 -20 -20 -20 -20 -20 -14 18 14 29 28 20 21 21 28 2 -8 13 -20 -5 -19 22 13 -20 -20 -20 -20 -20 -20 -20 -20 -20 -20 -20 -20 -20 -20 -20 -20 -20 -20 -20 -20 -20 -20 -20 -20
-20 -20 -20 -20 -20 -20 -20 -20 -20 -20 -20 -20 -12 -5 17 16 17 14 22 27 27 23 11 19 -3 -14 -11 -11 14 14 -20 -20 -20 -20 -20 -20 -20 -20 -20 -20 -20 -20 -20 -20 -20 -20 -20 -20 -20 -20 -20 -20 -20 -20
-20 -20 -20 -20 -20 -20 -12 -20 -20 -20 -20 -20 13 -13 25 22 14 16 28 23 25 25 24 12 14 -0 -16 23 -3 -18 -20 -20 -20 -20 -20 -20 -20 -20 -20 -20 -20 -20 -20 -20 -20 -20 -20 -20 -20 -20 -20 -20 -20 -20
-20 -20 -20 -20 -20 -20 15 -20 -20 -20 -20 -14 19 24 30 16 13 19 30 31 30 10 21 2 -20 -20 -19 -15 -0 8 -20 -20 -20 -20 -20 -20 -20 -20 -20 -20 -20 -20 -20 -20 -20 -20 -20 -20 -20 -20 -20 -20 -20 -20
-20 -20 -20 -20 -20 11 -20 -20 -20 -20 -17 6 24 21 25 17 8 31 32 36 28 17 12 1 3 -20 4 -6 34 30 -10 -20 -20 -20 -20 -20 -20 -20 -20 -20 -20 -20 -20 -20 -20 -20 -20 -20 -20 -20 -20 -20 -20 -20
-6 -10 -20 -6 -15 14 -20 -20 -9 3 -11 9 32 31 31 34 33 27 21 25 8 -8 -12 -11 -2 -20 -20 17 14 -8 -19 -20 -20 -20 -20 -20 -20 -20 -20 -20 -20 -20 -20 -20 -20 -20 -20 -20 -20 -20 -20 -20 -20 -20
7 -1 -20 -19 2 -18 -8 -1 -2 4 20 12 34 37 26 26 17 12 2 15 35 -5 15 2 -20 -20 -20 -19 -7 -19 -20 -20 -20 -20 -20 -20 -20 -20 -20 -20 -20 -20 -20 -20 -20 -20 -20 -20 -20 -20 -20 -20 -20 -20
21 14 12 -11 -2 -11 -5 11 12 22 36 36 32 27 24 17 11 -16 -3 21 24 -3 20 -20 -20 -20 -20 -20 -20 -20 -20 -20 -20 -20 -20 -20 -20 -20 -20 -20 -20 -20 -20 -20 -20 -20 -20 -20 -20 -20 -20 -20 -20 -20
4 13 20 10 -13 -16 -20 -9 15 23 31 38 35 6 -0 -17 -4 11 14 10 22 23 -20 -20 -20 -20 -20 -20 -20 -11 -10 -20 -20 -20 -20 -20 -20 -20 -20 -20 -20 -20 -20 -20 -20 -20 -20 -20 -20 -20 -20 -20 -20 -20
23 25 23 22 23 20 13 13 28 30 35 32 26 22 7 11 14 3 -1 14 19 20 -20 -20 -20 -20 -20 -20 -20 -20 -20 -20 -20 -20 -20 -20 -20 -20 -20 -20 -20 -20 -20 -20 -20 -20 -20 -20 -20 -20 -20 -20 -20 -20
21 31 33 32 31 35 37 35 36 36 35 23 11 -1 -12 9 13 24 17 26 18 12 -20 -20 -20 -19 -20 -20 -20 -20 -20 -20 -20 -20 -20 -20 -20 -20 -20 -20 -20 -20 -20 -20 -20 -20 -20 -20 -20 -20 -20 -20 -20 -20
18 32 36 34 33 28 24 17 -1 -13 -0 -16 -5 -1 10 16 24 16 29 20 13 21 -20 -20 -20 -20 -20 -20 -20 -20 -20 -20 -20 -20 -20 -20 -20 -20 -20 -20 -20 -20 -20 -20 -20 -20 -20 -20 -20 -20 -20 -20 -20 -20
18 23 28 31 31 25 28 22 1 30 9 -20 -19 -2 4 15 21 17 17 19 18 -20 -20 -20 -20 -20 -20 -20 -20 -20 -20 -20 -20 -20 -20 -20 -20 -20 -20 -20 -20 -20 -20 -20 -20 -20 -20 -20 -20 -20 -20 -20 -20 -20
15 11 20 24 23 21 20 11 30 17 3 -0 3 11 9 6 9 11 14 14 -12 -20 -20 -20 -20 -20 -20 -20 -20 -20 -20 -20 -20 -20 -20 -20 -20 -20 -20 -20 -20 -20 -20 -20 -20 -20 -20 -20 -20 -20 -20 -20 -20 -20
6 -3 12 13 15 8 -19 -20 1 -2 -20 4 21 -4 -2 11 26 24 18 9 3 -20 -20 -20 -20 -20 -20 -20 -20 -20 -20 -20 -20 -20 -20 -20 -20 -20 -20 -20 -20 -20 -20 -20 -20 -20 -20 -20 -20 -20 -20 -20 -20 -20
0 7 15 13 -15 -15 -14 -10 1 -3 -4 9 -10 14 -1 9 28 37 30 6 -8 12 -11 -20 -20 -20 -20 -20 -20 -20 -20 -20 -20 -20 -20 -20 -20 -20 -20 -20 -20 -20 -20 -20 -20 -20 -20 -20 -20 -20 -20 -20 -20 -20
8 -3 -2 -17 -1 -10 -10 11 9 6 -4 -6 6 -3 15 24 31 32 38 10 15 7 -3 -20 -20 -20 -20 -20 -20 -20 -20 -20 -20 -20 -20 -20 -20 -20 -20 -20 -20 -20 -20 -20 -20 -20 -20 -20 -20 -20 -20 -20 -20 -20
17 19 -13 -20 -20 -20 -12 6 3 2 1 -1 16 17 22 30 30 40 25 27 12 -2 -20 -20 -20 -20 -20 -20 -20 -20 -20 -20 -20 -20 -20 -20 -20 -20 -20 -20 -20 -20 -20 -20 -20 -20 -20 -20 -20 -20 -20 -20 -20 -20
-13 -10 -20 -20 -20 -20 2 -6 7 -4 4 3 9 27 34 30 33 35 11 -1 -17 -19 -20 -20 -20 -20 -20 -20 -20 -20 -20 -20 -20 -20 -20 -20 -20 -20 -20 -20 -20 -20 -20 -20 -20 -20 -20 -20 -20 -20 -20 -20 -20 -20
-17 -20 -19 2 -4 -5 -9 19 18 10 25 32 30 19 20 17 24 23 8 -20 -7 -19 -20 -20 -20 -20 -20 -20 -20 -20 -20 -20 -20 -20 -20 -20 -20 -20 -20 -20 -20 -20 -20 -20 -20 -20 -20 -20 -20 -20 -20 -17 -20 -20
-16 -3 -20 -20 -0 -19 -3 17 11 7 21 16 30 33 26 11 17 19 17 -1 -20 -14 -5 -7 -10 -7 -20 -20 -20 -20 -20 -20 -20 -20 -20 -20 -20 -20 -20 -20 -20 -20 -20 -20 -20 -20 -20 -20 -20 -20 -20 -20 -20 -20
-5 -11 -10 -19 -10 -9 2 0 2 5 5 23 23 19 12 4 17 20 21 16 -11 -20 -20 -20 -20 -20 -20 -20 -20 -7 -20 -20 -20 -20 -20 -20 -20 -20 -20 -20 -20 -20 -20 -20 -20 -20 -20 -20 -20 -20 -20 -20 -20 -20
-20 0 -20 -20 -20 -4 3 9 3 -5 0 10 13 12 16 12 1 17 21 27 23 6 -19 -20 -20 -20 -5 -20 -20 -20 -20 -20 -20 -20 -20 -20 -20 -20 -20 -20 -20 -20 -20 -20 12 6 -16 -17 -17 -20 -20 -20 -20 -20
-13 -3 -9 -20 -6 5 -6 -8 -0 4 -11 -1 5 -6 -0 6 6 13 19 26 33 26 12 -0 5 9 8 4 -1 -10 -17 -17 -20 -20 -20 -13 -14 -20 -20 -20 -20 -20 -15 -20 -20 -15 10 1 6 -9 -9 -20 -20 -20
-20 2 -20 -20 -7 -2 -16 -14 5 -8 -10 3 -4 -8 -9 -4 5 14 15 12 24 11 12 9 -16 -11 9 11 16 10 5 16 -19 -20 -20 -20 -20 -20 -20 -20 -20 -20 -20 -20 -20 -20 -16 -12 -20 -20 -20 -20 -17 -8
-20 -20 -17 -1 -20 -20 -9 3 6 -15 -1 -2 -16 1 2 -18 -1 -4 -1 -14 -8 -5 9 9 3 -16 -20 -20 5 -6 9 -18 -14 -20 -20 -20 -20 -20 -20 -20 -20 -20 -20 -20 -20 -20 -20 -20 -20 -20 -20 -20 -20 -20
-16 -20 -20 -17 -20 -16 -20 2 -16 -1 -4 -20 -20 -18 -2 -4 -20 -2 -20 1 -10 -16 -5 -7 -2 -3 -12 -20 -20 -9 3 -20 -4 -10 -19 7 13 3 -8 -11 -6 -20 -20 -20 -20 -20 -20 -20 -20 -20 -20 -20 -20 -20
Wind_Speed
2 2 5 6 8 11 13 16 20 18 24 25 24 21 22 21 19 13 5 7 4 5 12 14 15 16 18 15 10 5 7 8 9 8 11 13 8 4 13 16 17 12 8 7 10 9 6 16 16 11 10 21 25 23
5 6 6 7 7 10 17 17 20 20 22 20 18 17 18 21 18 13 4 7 6 6 8 19 20 20 17 15 7 3 7 15 6 9 7 6 10 5 12 8 3 9 5 6 5 3 10 19 8 11 20 24 23 23
8 5 9 8 10 13 19 20 19 18 17 16 15 15 16 18 17 12 4 5 3 6 6 11 13 16 17 16 11 5 3 8 4 5 5 4 6 6 9 7 8 3 4 6 8 9 18 12 13 15 21 22 24 24
10 13 11 15 19 18 20 17 15 14 13 13 14 13 13 12 12 13 7 3 3 5 4 6 6 15 9 12 15 15 11 10 8 6 1 2 5 4 5 6 7 2 10 11 14 15 13 11 14 21 22 23 25 23
9 13 13 10 13 14 14 13 11 11 11 11 12 12 11 9 9 6 5 4 7 6 3 7 13 16 10 12 13 13 11 8 7 4 2 3 4 5 5 5 5 9 13 8 8 20 8 17 19 24 26 25 26 26
8 9 9 10 11 11 11 10 10 10 10 9 8 10 9 8 3 2 4 7 10 7 3 5 8 9 11 11 11 11 8 6 6 1 3 4 2 2 4 5 9 8 10 6 10 22 21 21 20 24 25 26 25 25
5 6 6 7 8 8 9 9 10 9 9 6 6 6 7 5 3 4 2 5 9 3 1 5 6 6 8 10 6 5 6 4 5 3 2 5 4 2 3 5 12 11 9 20 19 24 21 23 22 23 25 25 24 24
2 3 4 5 6 7 9 10 10 8 5 3 6 7 4 4 5 6 6 9 8 3 1 4 6 8 11 6 4 4 6 5 1 3 3 5 4 2 3 14 16 15 18 20 20 17 24 23 24 24 24 24 25 23
2 3 4 5 6 9 10 10 9 5 1 3 4 2 2 4 4 2 5 9 2 3 3 5 6 8 7 6 2 1 3 3 2 3 4 2 3 3 13 19 18 20 14 19 20 23 24 26 27 26 26 26 25 24
1 2 3 4 5 8 10 10 7 4 2 2 4 3 4 4 12 12 4 3 3 2 3 5 8 8 10 7 2 3 2 2 3 4 3 3 5 4 13 15 17 15 22 23 25 23 24 25 24 26 25 23 23 24
4 3 4 4 7 10 10 9 8 4 3 3 4 4 3 15 2 2 2 3 3 4 5 7 11 10 3 10 10 5 2 2 5 5 3 5 6 8 14 16 16 18 20 19 17 23 24 28 24 22 22 21 21 23
6 8 8 10 10 13 12 11 8 4 3 5 2 4 3 3 3 5 5 4 5 6 10 10 7 11 4 2 5 2 4 0 5 5 3 6 7 15 17 19 16 18 19 13 20 24 22 23 22 21 20 20 21 20
2 3 3 2 4 9 12 13 14 12 5 4 4 4 4 3 5 6 9 3 3 5 8 11 9 7 5 3 4 4 4 4 6 1 5 4 13 15 17 17 18 18 14 17 21 20 22 21 19 19 19 16 17 16
3 2 4 9 11 12 16 15 16 10 3 5 6 6 6 6 7 5 7 4 4 8 12 12 9 5 4 3 3 6 5 5 4 5 7 8 16 18 17 17 19 20 18 21 21 22 20 16 12 12 12 15 19 17
7 10 11 10 13 16 18 21 19 6 4 5 5 6 7 4 5 7 4 2 7 8 10 10 7 5 4 5 3 6 4 5 6 6 4 10 17 18 19 19 20 19 17 18 20 19 17 18 18 17 15 18 17 16
12 13 4 13 18 13 11 16 9 5 3 4 4 3 3 8 7 6 3 7 6 11 8 8 6 6 4 6 6 5 10 6 6 4 7 13 18 18 19 18 18 18 19 20 19 19 20 19 20 20 19 17 14 17
9 3 7 9 4 11 8 5 4 3 4 4 2 3 4 6 6 7 3 7 7 5 10 10 8 5 6 4 7 5 3 7 6 6 8 14 18 19 19 18 18 18 19 20 20 20 19 19 20 20 19 17 18 16
3 5 11 8 4 4 2 3 1 3 3 2 2 1 2 4 5 7 3 4 4 5 8 3 5 5 6 10 7 6 5 5 6 7 9 14 17 18 16 19 19 19 20 20 20 20 21 21 19 14 18 20 17 16
8 8 11 8 3 3 2 2 1 1 1 2 1 2 2 2 3 5 1 2 4 7 3 3 4 6 6 3 8 9 9 7 8 9 11 15 16 17 18 18 18 18 20 21 20 14 14 18 14 14 14 14 12 13
11 8 9 5 4 3 3 3 2 4 2 2 2 2 1 1 3 4 5 4 4 5 3 2 3 8 5 5 3 8 9 11 10 11 11 11 11 16 17 15 12 18 16 18 14 13 14 13 13 13 13 13 13 14
5 6 5 4 2 1 3 1 2 2 1 1 2 1 1 1 4 4 4 7 2 4 3 5 5 5 4 3 6 8 10 11 10 9 13 12 12 13 13 12 15 13 13 12 13 12 11 12 13 13 12 11 10 11
2 4 2 3 3 4 2 3 3 2 1 0 1 1 3 1 4 4 2 3 4 3 5 5 5 6 7 8 7 8 10 11 12 11 10 12 13 12 12 12 12 12 11 12 12 13 12 12 12 12 11 11 11 11
5 2 3 1 2 3 3 1 3 0 1 1 1 2 2 3 2 2 1 3 2 4 3 2 5 8 10 10 10 10 9 12 11 12 13 11 12 12 12 12 12 12 12 10 11 10 11 13 11 12 12 12 11 10
5 3 4 4 5 2 1 1 1 2 2 2 2 2 2 3 3 2 3 2 3 7 6 4 6 8 8 10 7 7 7 9 11 11 11 12 12 11 11 10 11 10 11 11 11 11 11 12 12 12 12 11 11 11
2 7 5 5 3 2 2 4 5 3 3 3 3 3 2 1 3 4 3 3 4 7 8 10 6 7 8 8 7 6 7 7 9 11 10 10 11 11 10 9 9 10 11 11 11 11 10 11 10 12 13 13 16 14
6 7 6 7 5 5 5 4 4 5 3 2 3 2 2 2 4 5 3 5 4 6 7 7 7 4 7 6 7 7 6 6 8 9 8 8 9 10 12 12 10 8 9 11 11 14 14 12 13 16 13 14 14 15
6 6 3 1 2 2 3 4 3 4 4 6 3 3 1 4 4 3 1 3 4 6 7 5 5 5 5 6 6 6 5 5 6 8 8 6 6 7 8 10 12 10 12 14 14 14 17 16 15 14 13 11 11 13
5 7 5 7 4 5 4 4 5 7 5 5 2 7 4 6 3 4 3 5 7 7 6 5 3 4 4 5 5 5 6 7 10 10 9 8 6 5 5 4 8 10 10 11 12 12 12 14 15 16 15 14 13 11
4 5 5 6 4 6 7 7 5 5 5 3 2 4 3 3 5 5 5 8 7 5 5 6 5 4 4 5 6 5 4 4 7 8 8 6 5 3 4 6 8 8 8 9 7 8 12 12 13 12 13 10 9 9
5 6 3 5 5 6 5 5 3 3 4 4 4 5 4 2 3 4 6 6 7 6 6 4 4 2 3 3 4 5 6 6 5 4 5 4 4 6 6 6 7 7 8 10 10 11 13 12 12 10 10 9 8 8
4 5 4 5 5 4 3 2 2 3 3 4 4 5 5 3 3 5 7 7 6 6 7 8 6 7 6 4 4 3 4 3 5 7 5 5 5 5 4 5 5 6 7 9 10 11 12 10 10 11 12 12 13 12
4 5 4 3 3 2 4 3 3 3 3 3 3 2 3 3 3 5 8 8 8 9 9 8 7 6 8 5 3 3 3 2 2 3 3 3 5 6 6 6 5 6 8 8 8 9 12 11 10 10 11 13 13 11
1 2 3 2 2 1 1 2 2 2 3 3 4 3 3 4 5 5 5 8 7 7 8 7 7 6 7 5 5 4 5 4 5 5 5 6 6 6 6 5 6 8 9 9 8 9 10 12 11 12 11 11 11 10
Wind_Direction
305 114 125 136 164 152 153 169 164 171 168 166 175 174 177 181 189 200 221 177 198 239 281 275 300 301 200 235 210 168 168 210 191 253 179 161 154 186 161 158 168 168 170 191 170 178 154 152 151 182 106 139 144 144
186 179 162 154 148 158 155 167 157 165 160 163 166 173 178 185 190 194 239 211 186 233 280 304 287 276 279 300 312 256 311 178 204 258 153 112 134 187 139 142 282 182 186 162 358 78 136 151 160 124 143 141 145 146
77 115 158 157 149 140 142 144 163 155 153 156 166 177 181 185 194 195 246 254 247 236 274 255 258 246 233 234 239 276 205 346 297 338 101 126 154 144 180 134 136 109 138 101 151 116 120 120 123 133 141 142 143 133
108 70 71 110 113 136 153 155 141 142 148 158 167 175 182 191 206 212 229 198 218 267 254 263 280 242 239 214 214 229 287 305 290 281 238 124 114 263 114 147 156 129 157 126 104 139 124 150 143 138 138 136 128 137
78 147 168 176 140 123 120 124 131 140 151 159 165 175 180 192 222 247 254 242 233 263 303 294 307 257 202 197 207 223 239 264 272 221 166 92 108 121 105 123 128 172 146 177 176 165 162 150 142 143 140 138 141 140
64 90 112 114 113 115 121 129 135 136 140 149 163 191 194 207 214 219 247 214 229 237 298 287 323 190 187 199 203 222 228 236 253 230 101 89 74 199 151 141 115 111 161 80 120 164 132 139 144 145 141 141 140 138
65 85 101 116 124 131 133 136 136 136 140 153 167 184 217 196 227 234 260 326 166 121 265 294 240 158 170 153 171 200 197 212 266 154 64 123 112 98 124 127 139 126 125 116 119 119 129 146 141 142 140 136 135 136
95 135 151 156 155 154 146 136 133 136 144 190 205 235 220 292 277 263 250 230 159 138 201 261 248 146 183 152 151 221 158 185 328 130 171 101 131 85 91 122 128 123 121 127 142 144 136 135 135 138 137 140 138 139
190 187 168 152 156 161 148 144 148 136 217 234 167 336 282 217 219 148 72 127 333 234 217 236 230 144 178 138 81 124 234 136 215 112 90 218 139 109 144 148 147 146 144 147 124 132 137 140 141 142 146 146 142 143
76 194 185 171 162 159 154 157 157 143 78 27 227 180 232 207 128 140 146 222 168 225 215 254 281 144 180 155 91 191 248 117 96 60 168 143 81 90 145 151 149 153 142 136 131 141 145 146 150 153 155 152 147 148
313 245 212 209 205 185 179 177 162 155 154 169 208 234 202 134 108 153 204 216 205 219 214 233 253 141 175 159 137 261 114 122 143 123 188 158 139 153 149 148 156 147 154 158 153 152 155 150 151 152 152 147 147 147
280 271 254 237 241 202 194 191 196 183 198 218 292 215 145 153 157 172 200 173 211 245 181 205 193 138 124 148 134 61 85 187 101 138 125 159 126 153 153 152 145 152 157 151 147 148 148 150 149 149 146 148 147 145
244 71 147 162 244 235 228 227 229 228 266 298 242 203 190 172 186 212 171 173 260 222 183 171 153 145 154 134 104 110 91 75 139 120 175 186 149 158 154 150 148 152 152 138 142 143 145 142 145 147 143 137 123 116
16 310 256 263 247 247 254 244 231 212 182 231 195 198 218 171 213 196 166 129 270 275 179 174 154 127 130 90 117 85 84 149 167 154 207 160 163 158 152 151 150 151 147 143 142 142 138 125 107 96 109 125 129 131
345 307 272 281 261 252 250 261 195 180 226 232 210 201 201 166 137 137 130 26 250 256 213 153 141 108 104 102 82 117 149 190 203 190 153 145 160 152 151 156 153 148 140 141 143 137 128 129 124 119 128 138 132 132
330 316 237 260 275 253 208 152 166 206 226 228 221 241 225 147 141 136 120 259 243 255 188 173 127 146 124 132 154 180 159 178 162 133 121 145 153 153 154 154 148 144 146 145 143 143 142 139 144 141 144 140 141 143
316 221 270 320 298 193 125 139 170 135 245 248 223 226 265 150 153 125 157 256 205 228 209 153 151 149 125 176 176 160 163 67 107 120 140 147 154 151 151 145 142 147 144 142 144 147 142 143 142 143 142 148 154 148
240 281 316 353 325 70 46 18 109 170 231 238 302 67 318 338 120 101 200 237 226 238 204 103 125 174 159 173 160 134 117 114 113 126 132 144 146 148 143 144 148 147 144 145 146 143 146 147 148 145 141 151 142 149
325 315 354 348 355 62 84 242 258 281 251 94 173 264 25 32 81 101 300 335 282 289 282 174 136 168 150 44 129 122 137 135 133 130 130 136 139 140 143 144 144 143 144 146 146 149 147 152 146 142 148 150 150 154
300 314 2 331 261 165 150 102 128 257 156 116 165 179 259 279 216 38 351 5 325 268 32 49 53 49 70 75 80 130 132 133 141 130 131 131 136 143 144 144 139 142 140 142 142 139 143 143 145 150 154 155 154 159
267 18 317 245 226 305 66 73 91 355 308 95 101 282 69 139 81 52 344 345 313 355 73 44 73 89 65 94 88 111 130 151 146 146 143 139 146 142 144 139 138 138 140 143 146 145 149 148 148 151 154 151 152 153
3 324 299 226 218 161 101 55 360 357 302 316 328 19 104 126 77 82 321 341 40 8 353 3 65 112 111 104 116 130 135 136 131 126 133 139 143 146 141 143 143 143 146 150 149 151 147 150 148 145 148 146 145 149
313 278 279 328 93 71 76 189 224 109 86 44 78 59 47 72 71 51 349 71 70 30 50 71 86 92 100 98 103 110 129 132 140 142 147 141 138 139 143 146 149 146 145 151 146 144 146 140 135 146 143 146 145 139
172 29 7 32 29 63 191 12 239 83 58 59 78 100 50 85 113 70 71 60 336 30 16 59 118 114 110 101 91 105 128 133 140 142 137 143 140 143 145 144 147 150 152 141 150 139 138 141 140 146 148 136 138 149
33 17 351 23 333 74 56 22 8 54 56 46 70 62 56 330 84 71 49 23 15 27 9 356 54 76 97 102 102 97 118 135 132 134 138 146 138 136 134 137 139 143 147 146 138 134 139 143 149 146 148 150 156 163
65 19 28 1 5 27 32 27 10 30 52 68 51 358 328 67 64 62 48 344 346 20 14 3 351 45 67 67 98 92 91 111 128 121 122 137 147 147 145 143 141 151 160 151 143 149 151 152 153 154 155 162 163 156
48 25 5 358 323 345 62 39 356 60 47 30 27 20 42 70 74 64 20 16 358 357 336 332 338 347 12 72 72 71 66 74 94 108 123 127 137 147 158 163 167 163 160 154 154 162 158 157 160 163 160 162 168 169
15 24 35 1 22 15 56 22 29 33 31 351 11 25 38 17 47 349 344 360 339 325 317 307 320 316 22 60 75 83 80 86 91 94 89 73 71 90 106 110 114 132 151 146 158 158 161 161 161 162 162 163 165 169
32 6 20 12 24 51 31 19 36 34 341 314 55 61 62 44 356 348 342 332 326 330 4 8 13 16 46 33 36 40 76 123 138 127 123 129 136 114 105 127 139 133 125 127 123 144 153 156 159 154 155 150 147 144
26 350 29 29 41 57 36 13 32 11 22 38 113 127 113 100 57 7 355 357 1 5 346 332 317 23 47 61 55 47 28 5 32 120 149 151 149 133 139 138 131 131 127 135 128 118 112 114 114 116 123 133 145 149
355 343 40 47 61 37 16 295 259 97 54 48 38 68 86 126 154 62 23 360 6 17 16 9 9 20 21 21 27 32 46 38 17 44 47 88 121 131 113 105 103 124 132 136 141 143 141 142 146 147 150 152 160 161
7 17 16 53 59 15 287 356 19 44 26 36 53 81 145 157 82 29 11 357 18 24 10 1 354 343 339 335 335 13 17 52 55 39 31 98 111 118 114 114 113 119 122 127 129 136 146 142 147 153 155 157 163 162
45 14 11 42 62 28 360 346 32 84 54 58 53 40 46 38 67 28 17 17 11 0 343 323 304 302 320 357 14 11 21 35 43 57 73 93 102 108 111 113 124 134 128 128 132 139 141 150 152 157 152 150 151 150